Regional Weather Roundup
Issued by NWS

Home | Current Version | Previous Version | Text Only | Print | Product List | Glossary Off
Versions: 1 2 3 4 5 6 7 8 9 10 11 12 13 14 15 16 17 18 19 20 21 22 23 24 25 26 27 28 29 30 31 32 33 34 35 36 37 38 39 40 41 42 43 44 45 46 47 48 49 50

000
ASUS45 KPSR 281310
RWRAZ

ARIZONA HOURLY REGIONAL WEATHER ROUNDUP
NATIONAL WEATHER SERVICE PHOENIX AZ
600 AM MST TUE MAR 28 2017

NOTE: FAIR INDICATES FEW OR NO CLOUDS BELOW 12,000 FEET WITH NO
SIGNIFICANT WEATHER AND/OR OBSTRUCTIONS TO VISIBILITY.

AZZ001>003-036-281400-
NORTHWEST ARIZONA

CITY           SKY/WX    TMP DP  RH WIND       PRES   REMARKS
BULLHEAD CITY  CLEAR     63  25  23 N26G38    29.90R
KINGMAN        CLEAR     45  18  34 NW9       29.96R
$$

AZZ004>008-015-016-018-281400-
NORTH CENTRAL ARIZONA

CITY           SKY/WX    TMP DP  RH WIND       PRES   REMARKS
GRAND CANYON   PTCLDY    34  28  79 N6        29.90R WCI  29
WILLIAMS       FLURRIES  32  28  86 N7        29.90R WCI  26
PRESCOTT       CLEAR     35  32  88 NW8       29.89R WCI  29
FLAGSTAFF      CLOUDY    31  28  89 NW3       29.88R
PAYSON         CLEAR     37  32  81 CALM      29.87R
PAGE           CLOUDY    50  30  46 W7        29.86R
$$

AZZ009>014-017-281400-
NORTHEAST ARIZONA

CITY           SKY/WX    TMP DP  RH WIND       PRES   REMARKS
WINSLOW        CLOUDY    39  36  89 W3        29.86R
SAINT JOHNS    PTCLDY    34  33  96 N6        29.82R WCI  29
WINDOW ROCK    CLOUDY    36  30  79 NW3       29.85R
SHOW LOW       MOCLDY    32  28  86 W6        29.85R WCI  26
$$

AZZ023-281400-
GREATER PHOENIX AREA

CITY           SKY/WX    TMP DP  RH WIND       PRES   REMARKS
PHOENIX        PTCLDY    59  37  44 NW12      29.79R
BUCKEYE        CLEAR     55  36  47 N9        29.84R
GLENDALE       PTCLDY    57  37  47 W10       29.83
LUKE AFB       CLEAR     56  38  49 NW13      29.81R
DEER VALLEY    CLEAR     51  38  60 W7        29.80R
SCOTTSDALE     CLEAR     54  37  52 CALM      29.81R
MESA-FALCON    PTCLDY   N/A N/A N/A N6        29.78
MESA-GATEWAY   PTCLDY    55  37  50 W8        29.82R
CHANDLER       CLEAR     64  36  34 W14       29.81
$$

AZZ027-028-281400-
SOUTHWEST MARICOPA COUNTY AND PINAL COUNTY

CITY           SKY/WX    TMP DP  RH WIND       PRES   REMARKS
CASA GRANDE    NOT AVBL
GILA BEND      FAIR      58  33  38 W8        29.85R
$$

AZZ503-504-507>509-281400-
SOUTHEAST ARIZONA

CITY           SKY/WX    TMP DP  RH WIND       PRES   REMARKS
TUCSON         PTCLDY    51  45  79 S9        29.88R
DAVIS-MONTHAN  CLEAR     49  44  83 S8        29.86R
RYAN FIELD     CLEAR     52  45  76 SE9       29.87
NOGALES        MOCLDY    48  37  65 N8        29.92R
SIERRA VISTA   LGT RAIN  43  39  87 NW12      29.92R
DOUGLAS        CLOUDY    45  36  70 NW22G30   29.88S
SAFFORD        CLOUDY    52  36  54 NW6       29.80R
$$

AZZ020-021-025-026-031-281400-
SOUTHWEST ARIZONA

CITY           SKY/WX    TMP DP  RH WIND       PRES   REMARKS
YUMA           CLEAR     67  23  19 N22G35    29.89R
$$

CAZ031-033-041-043-047-048-061-281400-
SOUTHERN CALIFORNIA

CITY           SKY/WX    TMP DP  RH WIND       PRES   REMARKS
DOWNTOWN L.A.  CLEAR     57  49  74 NE5       30.00R
L.A. AIRPORT   PTCLDY    58  38  47 NE10      29.99R
SAN DIEGO      PTCLDY    57  49  74 NE5       30.02R
BURBANK        CLEAR     59  32  36 NW10      29.99S
ONTARIO        CLEAR     49  38  65 W6        30.00R
RIVERSIDE      CLEAR     55  42  61 NW8       30.00R
PALM SPRINGS   CLEAR     59  35  40 VRB7      30.00R
EL CENTRO NAS  CLEAR     63  19  18 NW14      29.96R
IMPERIAL       CLEAR     64  28  25 NW15      29.93R
BLYTHE         CLEAR     62  25  24 NW14      29.91S
NEEDLES        CLEAR     63  24  22 N16       29.95R
$$

NVZ020-UTZ003-281400-
SOUTHERN NEVADA-UTAH

CITY           SKY/WX    TMP DP  RH WIND       PRES   REMARKS
LAS VEGAS      PTCLDY    55  21  26 NW21G28   30.02R
SALT LAKE CITY PTCLDY    38  31  76 NW12      30.09R WCI  30
$$

NMZ009-TXZ055-281400-
NEW MEXICO-WEST TEXAS

CITY           SKY/WX    TMP DP  RH WIND       PRES   REMARKS
ALBUQUERQUE    RAIN      43  38  82 W16G24    29.86R
EL PASO        PTCLDY    62  29  28 W13       29.77R
$$


........................KEY........................
SKY/WX - SKY CONDITION/WEATHER
TMP    - TEMPERATURE IN FAHRENHEIT
DP     - DEW POINT IN FAHRENHEIT
RH     - RELATIVE HUMIDITY IN PERCENT
WIND   - DIRECTION AND SPEED IN MILES PER HOUR (MPH)
VRB    - VARIABLE WIND DIRECTION
PRES   - MEAN SEA LEVEL PRESSURE IN INCHES OF MERCURY
         F - FALLING PRESSURE   R - RISING PRESSURE
         S - STEADY PRESSURE
VSB    - VISIBILITY IN MILES
HX     - HEAT INDEX IN FAHRENHEIT
WCI    - WIND CHILL INDEX IN FAHRENHEIT
TC     - TEMPERATURE IN CELSIUS WHICH IS ALSO KNOWN AS
         TEMPERATURE IN CENTIGRADE
AFB    - AIR FORCE BASE
         LUKE AFB IS LUKE AIR FORCE BASE
         DAVIS-MONTHAN IS DAVIS-MONTHAN AIR FORCE BASE
NAS    - NAVAL AIR STATION
         EL CENTRO NAS IS EL CENTRO NAVAL AIR STATION
N/A    - NOT AVAILABLE




USA.gov is the U.S. government's official web portal to all federal, state and local government web resources and services.